{"data":{"norad_id":66515,"epoch":"2026-05-25T04:53:49.231392Z","epoch_age_seconds":50636,"freshness":"FRESH","line1":"1 66515U 25246C   26145.20404203  .00041241  00000+0  27831-3 0  9990","line2":"2 66515  41.4727  90.2489 0005482 218.1296 141.9160 15.74279029 30113","mean_motion":15.74279029,"eccentricity":0.0005482,"inclination_deg":41.4727,"raan_deg":90.2489,"arg_perigee_deg":218.1296,"mean_anomaly_deg":141.916,"bstar":0.00027831,"rev_number":3011,"period_min":91.470442880428,"perigee_km":342.99702443895,"apogee_km":350.37011771308,"semimajor_km":6724.820571076,"source":"CELESTRAK","updated_at":"2026-05-25T13:38:08.448040Z"}}